www.pogodaiklimat.ru

Погода и климат >> Архив погоды >> Алжир >> Mostaganem Ville


ПОГОДА в Mostaganem Ville

  • Прогноз погоды в Mostaganem Ville
  • Монитор погоды в Mostaganem Ville
  • Климат города

АРХИВ ПОГОДЫ в Mostaganem Ville

Время (UTC), дата Ветер
(напр.,м/с)
 
Видим.   Явления Облачность Т
(С)
Тd
(С)
f
(%)
Тe
(С)
Тes
(С)
Комфортность P
(гПа)
Po
(гПа)
Тmin
(С)
Tmax
(С)
R
(мм)
R24
(мм)
S
(см)
18 20.06 СВ 2 10 км 1/1 800 м
[Cu med, cong]
+30.9 +17.8 46 +35 +36 очень
душно
1013.6 1014.0 +32.3
06 21.06 Ю 2 5000 м 10/10 480 м
[St]
+20.7 +19.9 95 +26 +26 душно 1014.8 1015.0 +19.2
09 21.06 З 3 8000 м 4/4 480 м
[St]
+25.2 +20.8 77 +32 +39 очень
душно
1015.1 1015.0
12 21.06 С 4 8000 м 3/3 600 м
[Cu hum]
+30.7 +20.3 54 +37 +48 очень
душно
1014.2 1014.0
15 21.06 С 3 12 км 3/1 600 м
[Cu hum Ci sp]
+35.6 +13.6 27 +36 +46 очень
жарко
1012.0 1012.0
18 21.06 С 2 15 км 4/4 600 м
[Cu hum Ci sp]
+33.5 +14.1 31 +35 +35 душно 1012.1 1012.0 +37.1
06 22.06 штиль 0 8000 м 9/9 480 м
[Cu med, cong]
+22.2 +19.9 87 +28 +28 душно 1016.7 1017.0 +21.6
09 22.06 СЗ 2 8000 м 4/4 480 м
[Cu hum]
+25.6 +20.6 74 +32 +40 очень
душно
1018.1 1018.0
12 22.06 С 4 8000 м 1/1 480 м
[Cu hum]
+26.1 +21.0 74 +33 +45 очень
душно
1017.6 1018.0
15 22.06 СЗ 5 8000 м 1/1 480 м
[Cu hum]
+26.6 +22.0 76 +34 +41 очень
душно
1016.5 1017.0
18 22.06 СЗ 4 10 км 1/1 480 м
[Cu hum Ci fib]
+24.5 +21.7 84 +31 +32 очень
душно
1016.3 1016.0 +27.1
06 23.06 З 2 8000 м 9/9 600 м
[Sc]
+22.5 +21.1 92 +30 +30 очень
душно
1020.3 1020.0 +20.8
09 23.06 ЮЗ 3 10 км ясно +25.9 +21.0 74 +32 +44 очень
душно
1021.2 1021.0
12 23.06 СЗ 3 10 км ясно +26.8 +21.3 72 +34 +51 опасность
солнечного
удара
1020.5 1021.0
15 23.06 СЗ 4 10 км ясно +27.6 +20.9 67 +35 +43 очень
душно
1019.2 1019.0
18 23.06 СЗ 4 15 км ясно +27.2 +19.3 62 +33 +34 очень
душно
1018.0 1018.0 +28.9
06 24.06 штиль 0 5000 м 9/9 480 м
[St]
+19.9 +19.3 96 +23 +23 комфорт 1018.6 1019.0 +18.3
09 24.06 СЗ 2 8000 м 3/3 480 м
[St]
+28.8 +21.8 66 +37 +46 очень
душно
1018.5 1019.0
12 24.06 СЗ 4 10 км ясно +31.4 +17.7 44 +36 +49 очень
душно
1017.3 1017.0
15 24.06 СЗ 4 15 км ясно +32.1 +13.2 32 +33 +42 жарко 1015.0 1015.0
18 24.06 СВ 2 15 км ясно +35.8 +12.6 25 +36 +37 очень
жарко
1013.4 1013.0 +36.5
06 25.06 СВ 2 10 км 8/0
[Ci fib]
+27.4 +11.8 38 +29 +30 жарко 1011.6 1012.0 +23.1
09 25.06 В 2 10 км 6/0
[Ci sp]
+37.7 +10.2 19 +36 +48 очень
жарко
1011.6 1012.0
12 25.06 СЗ 4 10 км 4/0
[Ci sp]
+39.7 +12.7 20 +39 +54 опасность
солнечного
удара
1010.7 1011.0
15 25.06 С 5 10 км ясно +40.2 +8.6 15 +38 +46 очень
жарко
1008.9 1009.0
18 25.06 З 1 10 км 4/0
[Ci sp]
+30.4 +20.5 55 +37 +38 очень
душно
1008.2 1008.0 +41.7
06 26.06 З 4 8000 м 4/4 600 м
[Cu hum]
+24.6 +22.5 88 +32 +33 очень
душно
1010.3 1010.0 +23.3
09 26.06 СЗ 3 8000 м 3/3 800 м
[Cu hum]
+27.0 +22.8 78 +36 +44 очень
душно
1012.2 1012.0
12 26.06 С 4 10 км 1/1 800 м
[Cu hum]
+27.7 +22.9 75 +37 +51 опасность
солнечного
удара
1012.3 1012.0
15 26.06 СЗ 3 10 км 6/4 800 м
[Sc Ac cast]
+28.5 +22.5 70 +37 +42 очень
душно
1011.2 1011.0
18 26.06 З 2 10 км 9/3 800 м
[Sc Ac cast Ci sp]
+28.3 +20.0 61 +35 +35 очень
душно
1010.9 1011.0 +28.6
06 27.06 штиль 0 8000 м 6/0
[Ac cast]
+24.4 +19.5 74 +30 +30 очень
душно
1009.9 1010.0 +23.6
09 27.06 З 3 8000 м 6/0
[Ac cast]
+30.0 +13.8 37 +32 +38 жарко 1010.7 1011.0
12 27.06 СЗ 4 12 км 4/0
[Ac cast Ci sp]
+29.9 +16.6 45 +33 +45 душно 1009.6 1010.0
15 27.06 З 4 12 км 6/4 800 м
[Sc Ac cast]
+28.2 +16.8 50 +32 +36 душно 1009.5 1010.0

 

Местоположение метеостанции Mostaganem Ville (Алжир): широта 35.88 долгота 0.12 высота над уровнем моря 138 м.

В архиве по умолчанию представлена погода в Mostaganem Ville за последнюю неделю. Архивные данные за месяц целиком и за предыдущие месяцы, начиная с января 2011 года, Вы можете получить, выбрав интересующий диапазон дат из раскрывающегося списка и нажав кнопку "Ввод!".

Внимание! Время в таблицах - всемирное. Для получения местного времени необходимо прибавить поправку, которая в Mostaganem Ville равна 1 ч.

Смотрите также архив погоды в соседних городах и на ближайших метеорологических станциях:

Погода в Arzew (Алжир) (36 км)
Погода в Relizane (Алжир) (42 км)
Погода в Oran (Es Senia) (Алжир) (71 км)
Погода в Oran-Port (Алжир) (72 км)
Погода в Oran Tafaraoui (Алжир) (73 км)
Погода в Mascara Ghriss (Алжир) (73 км)
Погода в Sidi Bel Abbes (Алжир) (101 км)
Погода в Saida (Алжир) (112 км)
Погода в Chlef (Алжир) (115 км)
Погода в Tenes (Алжир) (129 км)

Пояснения к столбцам:

Ветер - указаны скорость ветра в м/с - средняя за 10 мин, порывы в срок и между сроками (в фигурных скобках) и направление, откуда дует ветер: С - северный, СВ - северо-восточный, В - восточный, ЮВ - юго-восточный, Ю - южный, ЮЗ - юго-западный, З - западный, СЗ - северо-западный.
Видимость - горизонтальная дальность видимости в метрах или километрах. При видимости от 1 до 10 км при отсутствии осадков обычно наблюдается дымка, при ухудшении видимости до 1 км и менее - туман. В сухую погоду видимость может ухудшаться дымом, пылью или мглою.
Явления - указаны атмосферные явления, наблюдавшиеся в срок или в последний час перед сроком; фигурными скобками обозначены явления, наблюдавшиеся между сроками (за 1-3 часа до срока); квадратными скобками обозначены град или гололедные отложения с указанием их диаметра в мм.
Облачность - указаны через наклонную черту общая и нижняя облачность в баллах и высота нижней границы облаков в метрах; квадратными скобками обозначены формы облаков: Ci - перистые, Cs - перисто-слоистые, Cc - перисто-кучевые, Ac - высококучевые, As - высокослоистые, Sc - слоисто-кучевые, Ns - слоисто-дождевые, Cu - кучевые, Cb - кучево-дождевые. Подробнее классификацию облаков см. в Атласе облаков (PDF).
T - Температура воздуха - температура, измеренная на высоте 2 м над землей.
Td - Температура точки росы - температура, при понижении до которой содержащийся в воздухе водяной пар достигнет насыщения.
f - Относительная влажность воздуха - влажноcть воздуха, измеренная на высоте 2 м над землей.
Te - Эффективная температура - температура, которую ощущает одетый по сезону человек в тени. Характеристика душности погоды. При расчете учитывается влияние влажности воздуха и скорости ветра на теплоощущения человека.
Tes - Эффективная температура на солнце - температура, которую ощущает человек, с поправкой на солнечный нагрев. Характеристика знойности погоды. Зависит от высоты солнца над горизонтом, облачности и скорости ветра. Ночью, в пасмурную погоду, а также при ветре 12 м/с и более поправка равна нулю.
P - Атмосферное давление - приведенное к уровню моря атмосферное давление.
Po - Атмосферное давление - измеренное на уровне метеостанции атмосферное давление.
Tmin - Минимальная температура - минимум температуры воздуха на высоте 2 м над землей.
Tmax - Максимальная температура - максимум температуры воздуха на высоте 2 м над землей.
R - Количество осадков - Количество выпавших осадков за период времени, мм. При наведении курсора мыши на число - период времени, за который выпало указанное количество осадков.
R24 - Количество осадков - Количество выпавших осадков за 24 часа, мм.
S - Снежный покров - Высота снежного покрова, см. При наведении курсора мыши на число - состояние снежного покрова и степень покрытия местности в баллах.